Location: Peebles
(55.6412°N, 3.1714°W)
Time: 15:08:18
(UTC+01:00)

Cosmos 2341 Rocket - Pass Details

Date: 26 September 2021
Orbit: 969 x 1004 km, 82.9° (Epoch: 18 October)

Event Time Altitude Azimuth Distance (km) Brightness Sun altitude
Rises 21:28:53 0° 200° (SSW) 3,700 6.9 -20.9°
Reaches altitude 10° 21:31:25 10° 203° (SSW) 2,759 6.3 -21.2°
Maximum altitude 21:37:43 65° 286° (WNW) 1,094 4.4 -22.0°
Drops below altitude 10° 21:44:06 10° 8° (N) 2,791 6.7 -22.7°
Sets 21:46:42 0° 12° (NNE) 3,746 7.4 -23.0°
